Location: Banios
(43.0451°N, 0.2335°E)
Time: 20:18:34
(UTC+00:00)

NOAA 6 - Pass Details

Date: 25 January 2021
Orbit: 772 x 786 km, 98.7° (Epoch: 02 March)

Event Time Altitude Azimuth Distance (km) Brightness Sun altitude
Rises 06:36:21 0° 8° (N) 3,288 7.2 -8.4°
Reaches altitude 10° 06:38:44 10° 3° (N) 2,356 6.4 -8.0°
Maximum altitude 06:43:44 49° 290° (WNW) 1,012 4.3 -7.1°
Drops below altitude 10° 06:48:41 10° 217° (SW) 2,340 6.4 -6.3°
Sets 06:51:03 0° 211° (SSW) 3,264 7.1 -5.9°
